Вернуться в каталог

STARLINK-33573

АктивенСвязьVLEO
NORAD 62778·PAYLOAD·🇺🇸 United States

Запущен Jan 21, 2025 с Vandenberg Space Force Base

Loading…

Ближайшие Пролёты (ближайшие 24 часа)

TLE

СвежийSource: CelesTrak SupGP

Эпоха: Sep 15, 2026, 02:49 UTC

1 62778C 25015W   26258.11784722  .00007004  00000+0  20694-3 0  2580
2 62778  53.1576 159.1901 0001261  84.6205 189.2421 15.34387128    10

Отслеживайте STARLINK-33573 в реальном времени с AllMySat

Download on the App Store